Theta_e
311 312 314 315 316 317 317 318 318 319 320 320 320 320 319 319 318 317 317 318 315 311 308 305 303 303 306 308 310 310 310 312 315 316 318 319 319 322 325 326 328 327 326 327 327 328 328 327 327 326 326 326 326 329 330 330 330 331 335 336 335 335 334 334 334 333 334 333 330 328 329 330 328 327 325 326 327 326 328 327 328 331 331 333 336 337 336 335
311 311 312 313 315 316 317 317 317 318 319 320 320 320 320 319 319 318 318 318 317 313 309 307 304 304 306 307 309 309 311 316 316 313 314 315 316 319 322 324 325 326 326 326 328 328 327 327 327 326 326 326 326 328 329 329 330 331 335 336 334 335 334 333 333 332 333 332 331 329 329 329 329 329 327 328 330 329 329 329 328 330 333 334 335 336 335 334
310 311 311 312 313 315 316 316 317 317 318 319 320 320 320 320 319 319 319 319 318 315 311 308 305 305 306 307 308 308 314 318 315 314 316 315 314 315 318 322 324 326 326 326 327 328 328 328 327 327 326 326 326 327 328 328 330 330 333 335 334 334 332 332 331 331 332 332 332 331 330 329 329 329 329 330 331 332 332 332 330 329 333 334 335 336 335 334
310 310 311 311 312 313 315 315 316 317 317 318 319 320 320 320 319 319 319 319 319 317 313 310 306 305 306 308 308 309 315 316 314 318 321 321 320 317 315 317 320 323 325 325 326 328 329 329 327 327 326 327 327 326 328 328 329 330 331 333 332 332 332 331 330 331 331 331 331 331 331 330 330 329 329 330 331 332 332 330 329 328 332 335 334 336 335 334
311 310 310 311 311 312 314 315 315 316 316 316 318 319 320 320 320 319 319 319 319 317 314 311 308 306 307 310 309 312 315 312 316 323 322 321 322 322 318 315 316 319 323 324 326 327 327 328 327 327 327 328 327 327 327 326 327 329 330 331 330 330 331 330 330 330 330 330 331 331 331 330 330 330 329 330 331 332 331 329 328 327 331 334 334 336 336 335
311 311 310 310 311 312 312 313 315 316 316 316 317 318 319 320 320 319 320 319 319 319 315 312 309 308 310 311 311 315 315 311 320 324 320 320 321 323 322 320 317 317 321 323 324 327 326 326 326 327 328 328 328 327 326 325 326 328 329 328 328 329 329 329 329 330 330 330 331 330 330 330 330 330 329 330 330 331 330 329 329 326 328 332 334 336 336 336
310 311 311 310 310 311 312 312 313 315 315 316 316 316 317 318 319 320 320 319 319 319 317 313 310 309 311 313 314 317 315 314 321 323 320 318 320 323 323 323 322 319 320 321 322 325 325 325 325 326 327 329 328 326 326 325 325 327 328 328 327 328 328 328 329 329 330 330 330 329 330 330 330 330 329 330 330 330 330 328 328 327 326 328 332 336 336 336
310 310 310 310 311 311 311 312 312 313 314 315 315 315 315 317 318 319 319 319 319 319 318 315 310 309 312 315 316 315 315 315 316 320 322 317 316 321 325 326 324 323 321 320 322 323 324 324 324 325 326 328 328 326 326 325 325 326 327 327 326 327 327 328 329 329 329 330 330 329 330 330 330 329 329 330 330 329 330 328 328 328 328 326 328 334 336 335
309 310 310 310 310 310 311 311 311 312 313 314 314 314 314 316 318 318 319 319 319 319 318 316 312 309 312 316 316 314 315 314 310 313 317 315 313 317 324 326 324 324 322 320 323 323 323 324 323 324 324 326 326 326 326 326 325 324 326 326 325 327 327 327 327 327 328 329 330 330 330 330 329 329 329 330 329 329 330 330 329 328 329 329 328 331 333 334
309 309 309 309 310 310 310 310 311 311 312 313 313 313 313 314 316 317 318 319 319 319 319 317 313 309 313 316 315 315 315 313 312 311 312 313 313 315 321 326 324 323 323 321 322 323 323 323 323 323 323 324 324 325 325 326 326 324 324 325 325 326 326 326 326 325 327 328 329 330 330 330 329 330 330 330 329 330 330 330 330 330 330 330 329 329 329 330
309 309 309 309 309 310 310 310 311 311 311 312 312 313 313 313 314 315 317 318 318 319 319 317 314 311 315 317 314 315 313 313 314 313 313 313 314 315 317 323 326 324 323 322 323 323 323 323 323 323 323 323 323 324 324 324 324 324 324 324 324 325 325 325 326 326 326 327 328 328 329 330 329 330 330 330 330 330 330 330 330 330 331 331 331 331 331 329
308 309 309 309 309 309 309 310 310 311 311 311 312 312 312 312 313 314 316 317 318 318 318 318 315 312 315 316 314 315 314 315 316 315 318 318 317 316 314 317 324 326 324 324 323 323 323 323 323 323 324 323 323 323 323 323 323 323 324 325 325 324 324 325 325 326 326 327 326 327 329 330 329 329 328 328 329 330 330 330 329 329 330 331 331 331 332 330
307 308 308 309 309 309 309 309 309 310 311 312 312 312 312 312 313 313 314 317 317 318 318 318 316 314 315 315 314 314 315 316 317 317 321 322 319 318 316 315 320 326 326 326 325 324 324 324 324 324 324 325 325 322 322 323 323 323 323 324 325 326 326 324 324 324 324 326 325 328 331 330 327 328 328 327 328 328 329 329 329 329 328 330 331 331 332 330
307 307 307 308 308 309 309 309 309 310 310 312 312 312 312 312 313 313 314 315 316 317 319 319 317 315 315 313 313 314 314 315 316 316 318 320 319 320 320 318 320 323 324 326 327 326 327 326 326 325 325 326 325 322 323 323 322 324 324 325 326 327 327 323 322 323 324 325 324 327 330 329 326 326 326 326 327 328 329 330 329 329 328 329 331 332 333 331
306 306 307 307 307 308 308 309 309 309 310 311 311 312 312 312 312 313 314 314 314 316 318 319 317 316 315 313 312 312 314 315 315 315 315 316 319 321 322 321 321 322 321 323 325 326 327 327 327 327 325 324 323 324 325 324 323 323 326 327 327 327 326 322 322 323 324 324 323 326 329 329 327 326 325 324 326 327 328 330 330 329 329 330 331 331 332 331
306 306 306 306 306 307 307 308 309 309 310 310 310 311 312 312 313 313 314 313 313 315 317 318 317 316 315 315 313 312 314 316 315 315 315 314 316 321 322 322 323 322 322 323 325 326 326 327 327 327 325 323 323 324 326 325 324 323 325 327 327 327 325 323 323 322 322 323 323 325 328 328 327 326 325 324 325 325 326 327 328 330 330 330 331 330 331 332
306 305 305 305 306 306 307 308 308 308 309 309 310 311 311 312 313 313 314 314 314 316 317 317 316 316 315 314 314 314 314 316 316 315 316 314 314 319 321 322 323 323 323 324 325 325 325 326 327 327 327 325 323 323 326 326 325 324 325 326 326 325 324 323 323 323 323 323 324 325 327 328 327 326 325 324 325 326 326 326 326 329 330 330 330 330 330 331
305 305 305 305 305 306 307 307 308 308 308 309 310 311 311 312 312 313 314 315 315 317 317 316 316 317 316 314 314 315 314 315 316 315 316 315 313 318 321 321 322 323 324 325 325 325 325 325 326 328 329 327 324 323 325 325 324 324 325 325 325 323 323 322 322 323 324 323 324 325 327 327 327 327 325 324 325 325 326 327 328 329 329 330 329 330 331 331
305 305 305 305 305 306 306 306 307 308 308 309 309 310 311 312 313 314 314 315 316 317 317 316 316 317 316 315 314 315 315 315 316 315 316 315 313 318 321 320 322 323 324 324 324 325 325 325 327 329 330 328 327 324 324 323 322 322 323 323 324 323 323 322 322 323 324 326 326 325 326 327 327 326 326 325 325 325 325 325 327 328 327 328 328 328 328 330
304 305 305 305 305 306 306 306 307 307 308 309 309 310 311 312 313 313 313 314 316 316 317 317 317 316 314 314 314 314 315 315 315 315 315 315 313 318 321 320 322 323 323 324 325 324 324 326 327 327 328 327 326 324 322 322 321 322 322 322 322 323 323 323 323 323 324 326 327 327 327 326 326 326 325 326 326 325 325 325 325 325 326 326 327 327 327 328
305 305 305 304 305 305 306 306 307 307 307 308 309 309 310 311 311 312 313 314 314 315 316 316 316 315 314 314 314 314 316 316 315 315 314 313 313 317 319 319 321 322 321 322 323 324 325 326 326 324 324 325 324 324 322 322 322 322 323 323 323 323 323 323 323 323 323 325 326 327 326 325 325 325 324 325 325 325 324 325 325 324 325 325 327 328 327 327
304 304 305 304 304 305 305 306 307 306 307 308 309 309 310 310 310 311 313 314 314 314 315 315 314 314 314 314 314 314 316 317 316 316 314 313 313 315 317 317 318 319 319 321 322 325 327 327 325 322 323 323 323 324 323 323 323 323 324 323 324 323 322 323 321 321 322 323 324 325 324 323 323 323 323 323 323 323 323 323 324 325 325 324 325 326 327 327
304 305 305 304 305 305 305 306 307 306 307 308 308 309 309 310 310 310 312 313 314 314 314 314 314 313 313 315 314 314 316 316 317 316 314 314 313 314 315 315 316 317 319 321 321 323 326 324 322 321 322 323 324 324 325 325 325 325 325 325 324 323 323 324 322 321 321 321 322 323 323 323 322 323 322 322 323 322 322 322 322 324 325 325 326 326 327 328
304 305 305 304 304 305 305 305 307 306 306 308 308 309 309 309 310 310 312 313 313 314 314 314 313 313 313 314 314 315 316 315 316 316 314 314 314 313 314 313 314 316 318 320 320 321 322 320 320 321 321 322 324 324 325 326 326 326 326 326 325 324 324 324 323 322 321 322 322 323 326 325 323 324 322 322 323 322 322 322 321 322 323 325 327 328 328 327
303 304 305 304 304 305 305 305 307 306 306 308 308 308 308 309 310 310 312 312 312 313 315 315 314 313 313 313 314 315 316 315 315 316 314 314 314 313 313 312 312 315 317 319 320 320 318 316 317 320 321 322 323 324 325 325 326 327 327 326 325 324 325 324 324 324 324 325 323 323 327 326 323 324 324 322 322 322 322 322 321 321 321 324 326 326 327 327
303 304 305 305 303 304 305 305 307 306 306 307 307 307 308 309 309 309 310 312 311 312 315 316 315 315 313 314 314 313 315 316 315 315 315 315 314 312 312 312 311 313 315 317 319 319 317 316 316 318 320 322 323 323 324 325 326 326 325 326 326 326 326 326 326 327 328 328 325 324 328 328 325 324 323 323 323 323 322 322 322 322 321 322 323 323 325 326
303 303 305 305 304 304 304 305 306 306 305 307 307 307 308 309 309 308 310 311 312 313 314 314 314 314 314 314 314 313 315 317 315 315 316 314 314 313 313 314 311 312 313 315 318 319 317 317 318 317 319 321 322 323 322 323 325 324 324 326 327 327 327 328 328 328 327 327 327 325 328 329 327 324 322 323 324 323 323 323 323 323 322 322 322 322 323 325
303 303 304 305 305 305 304 305 306 306 305 306 307 307 307 309 308 308 310 311 313 314 313 313 313 312 313 314 313 313 316 316 315 315 315 314 315 314 313 314 313 312 312 315 317 317 317 319 319 319 319 319 319 320 321 322 323 323 325 329 329 327 328 328 328 328 327 328 329 327 327 330 328 323 322 323 323 323 322 322 322 322 322 322 322 322 324 326
303 303 304 304 305 305 305 305 306 306 305 306 307 307 308 309 308 309 310 311 313 314 313 313 313 312 313 315 314 313 314 314 315 315 315 315 315 315 314 314 313 313 313 315 315 316 317 318 318 319 320 319 318 319 320 322 322 321 325 329 328 327 328 328 329 329 329 330 329 327 326 330 328 323 323 324 323 323 323 322 322 322 322 323 322 324 326 326
303 303 303 304 304 305 305 305 305 305 305 306 306 307 308 308 309 311 310 311 312 313 313 313 312 313 315 315 315 314 313 314 315 315 316 316 315 316 315 314 314 315 314 315 315 315 315 316 318 319 320 319 318 319 320 322 321 320 323 327 327 327 327 328 328 328 329 331 330 326 324 328 328 325 323 324 323 323 323 322 322 323 323 323 323 324 326 325
304 303 302 304 304 304 305 305 305 305 306 306 307 308 307 307 309 311 311 311 312 313 313 313 312 314 315 315 315 314 313 315 316 316 316 316 316 316 316 315 317 317 316 315 315 315 315 317 319 319 319 319 320 321 321 322 323 322 322 323 326 328 328 328 328 327 330 332 329 325 324 327 329 326 322 323 322 322 323 322 322 323 323 325 326 325 325 325
303 302 302 304 304 304 305 305 305 305 305 306 307 308 308 309 309 310 311 310 310 312 314 314 314 315 314 314 315 314 313 315 316 317 316 316 316 317 316 314 316 317 317 315 315 315 315 315 317 319 320 320 321 322 322 323 325 325 323 323 326 327 327 327 327 327 328 328 326 324 326 328 328 325 322 322 322 322 322 321 322 323 323 324 327 327 325 327
303 303 303 304 304 305 304 304 305 305 305 306 307 307 308 308 309 310 310 308 309 311 313 314 315 315 314 315 315 314 313 315 317 317 316 316 316 316 315 314 314 315 316 315 315 315 315 314 315 318 320 319 320 321 322 323 324 325 324 324 325 325 325 325 325 325 324 324 323 323 325 329 328 324 322 322 321 322 321 320 322 323 323 323 324 325 326 328
303 303 304 304 304 304 304 305 305 305 306 306 306 308 307 306 308 310 309 308 310 312 313 314 315 314 315 315 315 314 314 315 317 317 316 316 316 315 315 315 314 314 315 315 315 314 316 315 314 315 318 318 318 319 320 321 323 324 323 324 325 324 323 322 323 323 322 322 323 324 326 328 326 323 322 321 321 321 321 321 321 322 321 322 323 324 324 325
303 303 304 304 305 305 305 305 305 305 306 305 306 309 308 307 307 308 309 308 310 312 314 315 315 315 315 315 314 314 314 315 316 316 316 316 316 315 314 314 315 314 314 316 315 314 315 315 314 314 315 317 318 317 317 320 323 324 323 324 324 323 321 322 323 322 322 324 325 325 327 327 323 322 321 321 321 320 321 323 321 322 321 321 322 321 321 321
304 303 304 305 304 305 306 305 305 305 306 305 307 308 308 307 306 307 308 309 309 312 314 315 315 315 315 315 315 315 314 314 315 315 316 315 314 314 314 313 314 314 313 315 315 315 315 315 315 315 314 314 316 317 316 318 321 323 325 325 323 322 321 323 324 322 322 325 325 323 325 324 322 323 321 321 322 320 321 323 321 322 323 323 323 322 321 322
305 304 304 304 304 304 305 306 305 305 305 306 307 308 308 308 306 307 309 309 309 312 314 315 315 315 315 315 316 315 315 314 315 315 315 314 314 314 313 313 314 314 313 313 314 315 314 314 315 315 314 312 313 316 317 317 317 320 324 324 322 322 322 322 323 324 324 324 323 322 323 323 324 326 323 322 323 321 321 323 321 322 324 324 323 323 324 326
304 303 303 304 304 304 305 305 305 305 305 307 307 307 307 307 306 307 309 309 310 312 313 315 316 314 314 315 315 315 314 315 315 315 315 315 315 314 313 313 314 313 314 313 313 315 315 315 315 316 315 314 312 315 317 317 316 317 320 322 323 324 323 322 322 324 325 324 323 322 322 321 321 322 321 321 322 322 321 321 322 322 322 322 323 324 327 328
304 304 304 304 304 305 305 305 306 305 306 307 307 307 307 306 307 307 308 309 310 311 312 313 314 315 314 314 315 315 314 314 315 315 315 314 314 314 313 313 314 314 314 313 313 314 315 315 315 315 316 316 314 314 315 317 317 316 316 318 321 323 323 323 323 322 323 323 322 322 321 321 320 319 319 319 319 319 321 322 322 322 321 321 322 325 327 327
304 304 305 304 304 305 305 305 305 305 306 306 307 307 306 306 306 307 308 309 310 312 312 310 311 313 315 314 315 315 314 314 314 314 314 314 314 314 313 313 314 314 314 314 313 313 314 315 315 315 317 318 317 315 314 314 315 316 316 316 319 321 322 322 322 322 323 322 321 321 320 319 320 321 320 319 319 320 321 322 322 322 321 322 323 324 325 326
303 304 305 304 304 305 305 306 306 306 307 307 306 307 306 306 306 307 308 309 311 312 311 310 310 311 313 315 315 315 314 314 314 314 314 314 314 314 314 313 314 314 314 315 314 312 314 315 314 316 318 318 318 317 316 316 317 317 316 316 316 317 319 320 319 319 322 322 322 322 321 321 322 323 319 318 319 320 321 322 322 322 321 321 322 323 325 325
304 305 306 305 305 306 306 307 307 307 307 307 307 307 307 306 306 307 307 309 311 311 309 310 312 311 312 313 314 314 314 313 314 314 314 314 313 314 314 313 313 314 314 315 314 313 316 317 315 316 318 318 318 319 318 319 321 319 317 316 315 315 317 318 317 316 317 318 319 321 321 321 319 321 320 319 319 319 319 320 320 320 319 319 320 321 324 326
305 306 307 306 305 306 307 307 308 307 306 307 307 307 307 306 306 307 307 308 309 310 309 308 310 312 312 312 313 314 314 314 314 314 314 314 313 313 314 313 313 314 314 314 314 315 317 317 315 315 316 316 318 319 316 315 317 319 319 319 317 316 315 317 317 316 316 315 316 318 318 318 319 323 322 320 320 318 317 317 317 317 316 317 317 318 322 326
304 306 308 307 306 307 307 308 308 308 307 307 307 307 307 306 306 307 308 307 308 310 309 308 308 311 312 312 313 313 313 314 314 314 313 313 313 313 314 314 313 313 314 314 314 314 314 314 314 315 315 315 317 318 317 314 315 318 318 318 317 317 318 320 320 319 318 316 316 318 317 317 321 322 318 316 316 314 313 314 314 314 314 314 313 315 319 322
304 305 305 307 308 307 308 308 308 308 307 307 307 307 307 307 307 307 307 307 308 309 309 309 309 310 312 313 314 313 313 314 314 314 314 313 314 315 314 314 313 313 313 314 314 313 314 314 314 314 314 315 314 315 316 316 315 315 315 316 317 317 319 320 320 319 318 317 317 318 317 317 319 318 315 313 312 310 310 310 311 311 312 313 312 314 316 319
306 305 304 306 308 307 307 308 307 307 307 307 307 307 307 306 307 308 307 308 308 308 309 309 309 310 312 313 314 313 313 314 314 314 314 313 315 316 314 314 313 312 314 316 315 313 314 315 314 313 313 313 313 315 317 318 317 315 315 315 316 316 317 318 318 318 318 317 317 317 316 317 316 314 313 312 310 310 310 309 309 310 312 313 313 314 316 318
306 306 305 306 308 307 307 306 306 307 307 307 306 306 307 307 307 308 308 308 308 308 309 310 310 311 311 311 312 312 313 313 313 313 313 313 315 316 315 314 313 314 316 316 315 313 314 315 314 314 313 311 316 319 318 317 317 316 316 315 315 316 316 316 316 316 316 317 317 315 314 315 313 311 311 311 310 311 310 310 310 311 312 314 314 315 316 316
304 304 304 304 306 307 307 306 305 305 307 308 307 305 305 306 307 308 308 308 309 308 308 309 310 311 311 310 311 312 313 313 313 313 313 314 315 316 315 314 314 315 315 315 314 313 314 314 313 314 313 312 316 320 318 316 317 317 317 316 316 317 316 316 315 314 314 316 316 314 314 313 312 311 311 311 311 311 310 311 311 311 313 313 314 317 316 313
302 302 302 302 304 306 306 306 306 306 306 307 307 306 306 306 307 308 308 308 309 309 308 308 309 310 311 311 310 311 313 313 313 313 313 313 315 315 315 315 315 314 313 313 314 313 313 314 313 313 314 313 314 316 317 317 317 317 317 316 317 318 317 316 315 313 313 314 314 314 314 313 312 312 313 312 311 311 311 311 312 312 313 313 313 314 312 309
303 304 304 304 305 305 304 304 306 306 306 306 306 306 307 307 307 308 307 308 309 310 308 308 309 310 310 310 310 311 312 312 312 312 312 313 314 314 314 315 315 314 313 313 314 314 314 314 313 313 314 314 313 314 315 316 316 316 316 316 316 317 316 316 316 315 315 315 314 315 315 314 313 313 313 312 312 312 311 311 312 312 312 311 310 308 307 307
304 305 306 306 306 305 304 304 305 306 306 307 306 306 306 307 307 307 308 308 308 309 309 308 308 309 310 310 310 311 311 311 312 312 312 312 313 313 314 314 314 315 314 314 314 314 314 315 314 314 314 313 313 314 314 314 314 315 315 315 314 315 315 315 315 315 316 316 316 316 316 315 313 313 313 313 312 311 312 312 312 310 308 307 306 305 305 305
303 305 308 309 307 306 305 304 305 306 307 307 306 306 307 307 307 307 308 308 308 308 309 308 308 308 309 309 310 311 311 311 312 313 313 313 313 313 314 313 313 313 313 313 314 314 314 314 315 315 314 313 314 315 315 315 315 314 313 312 313 313 314 314 315 315 315 315 315 315 315 313 312 313 313 312 311 313 313 311 309 307 306 305 304 303 303 303
Wind_Speed
22 22 21 19 19 19 19 19 21 24 24 22 21 21 20 19 18 17 15 14 14 14 12 10 9 7 6 6 6 7 8 9 10 11 14 16 13 13 15 13 8 6 7 9 8 9 9 9 10 10 7 5 3 2 2 2 2 1 2 3 4 4 4 4 5 3 1 1 5 5 2 2 2 4 2 1 3 3 3 3 3 4 6 9 13 18 20 20
22 22 22 21 20 20 20 19 19 20 23 24 22 22 21 20 19 18 16 15 15 14 12 10 9 8 6 6 5 6 8 10 12 15 19 19 15 16 18 17 14 9 4 6 7 8 8 7 9 8 4 2 3 1 1 2 3 3 2 3 5 4 5 6 7 4 3 4 3 4 3 1 2 2 2 1 3 3 4 5 6 6 7 10 13 18 19 19
23 22 23 22 21 21 20 20 20 19 20 22 23 22 22 21 20 19 18 17 17 16 13 10 9 9 7 6 4 4 7 11 11 12 13 13 15 19 21 20 19 17 13 10 9 10 9 9 9 8 4 3 4 3 3 3 3 4 3 4 5 5 7 8 9 7 3 5 6 3 0 2 1 2 1 2 4 4 5 3 5 7 8 9 10 16 18 17
24 23 23 23 22 22 21 20 20 19 19 20 22 23 22 22 21 20 19 18 18 17 15 11 9 9 8 6 4 3 7 9 5 1 3 0 6 13 22 24 22 21 17 13 12 12 10 10 9 7 5 4 4 5 4 4 3 4 5 5 6 6 8 8 10 9 4 4 5 5 5 3 2 2 1 2 4 4 4 2 3 1 6 11 8 12 16 15
23 24 23 23 23 23 22 21 20 20 19 19 20 22 23 23 22 22 20 18 17 17 16 12 9 9 8 6 3 3 6 5 1 7 8 6 7 6 16 23 23 22 16 13 12 12 11 10 9 6 5 4 5 5 6 6 4 4 5 7 8 7 8 8 10 7 5 5 5 4 6 6 4 1 2 3 4 4 3 4 6 5 6 12 10 11 13 12
24 24 24 24 24 24 23 22 20 20 20 19 18 19 22 25 24 23 21 19 17 17 17 13 10 9 8 7 4 4 5 2 2 8 4 8 14 14 7 18 19 19 15 13 13 12 11 10 9 7 5 5 7 7 7 7 6 6 6 7 9 10 10 8 9 6 5 4 3 3 5 6 7 5 3 5 5 6 6 4 3 3 6 11 13 12 10 10
26 25 24 24 24 24 23 23 22 21 20 20 19 18 20 23 26 24 22 22 19 17 17 15 12 10 9 7 5 5 6 5 2 7 2 8 14 18 3 13 15 15 15 15 14 10 9 10 10 7 6 6 7 9 9 9 8 8 7 8 10 11 12 9 7 8 4 2 2 3 5 7 7 6 4 6 7 6 6 5 4 1 5 8 9 11 10 10
27 26 26 25 24 24 23 23 22 22 21 20 20 20 20 21 24 25 24 23 20 18 17 16 14 11 10 8 6 6 7 12 12 7 3 7 12 14 7 11 12 14 15 16 15 11 8 10 11 7 7 7 7 8 9 9 10 10 9 8 9 9 11 9 7 10 9 5 5 4 5 9 9 6 7 8 8 7 6 4 6 7 3 6 6 9 10 10
27 27 27 26 25 25 24 24 23 22 22 21 21 20 20 19 21 24 26 24 22 21 19 18 16 12 12 9 6 7 8 16 20 15 12 9 10 8 6 8 12 13 14 15 14 13 9 7 9 8 8 8 8 9 8 8 7 8 10 9 10 9 9 10 9 10 9 5 5 7 8 10 9 6 9 10 9 9 8 6 7 9 8 7 7 8 9 9
27 27 27 27 26 26 25 24 23 23 22 22 22 21 20 20 20 22 26 26 23 22 20 19 18 14 13 10 8 8 4 9 16 16 17 13 10 6 2 4 13 13 12 14 14 14 10 7 8 7 8 7 8 9 8 9 6 6 10 10 11 11 9 10 11 11 10 7 7 10 11 10 8 6 7 7 7 8 8 8 8 8 10 9 7 7 8 9
27 27 28 28 27 27 26 24 23 23 23 22 22 22 21 20 20 19 23 25 25 24 22 21 20 18 15 10 9 8 1 4 9 9 12 11 9 8 3 3 10 13 12 11 13 13 11 11 9 6 5 4 6 8 9 9 8 9 9 10 11 11 9 10 11 10 8 7 8 10 11 10 8 8 9 7 6 6 7 8 8 7 7 7 7 7 7 8
29 28 27 27 28 27 27 26 24 23 23 22 22 22 21 20 20 19 20 23 25 25 24 23 22 20 15 10 12 12 3 2 5 4 5 6 7 8 6 5 6 10 12 10 11 13 13 13 11 8 4 2 5 6 6 7 8 10 9 9 11 11 12 11 10 9 8 6 5 5 9 9 10 11 11 10 9 9 11 11 11 10 8 7 6 6 7 8
30 29 28 27 27 28 27 26 26 25 23 22 22 22 22 21 20 20 20 21 22 25 26 23 23 21 14 8 13 19 13 5 3 3 3 3 5 6 5 7 7 7 9 9 9 10 12 11 10 10 6 5 5 1 3 5 6 9 9 7 8 9 10 10 10 11 10 8 5 3 5 7 9 12 13 13 13 12 13 13 11 11 9 8 7 7 7 8
31 30 30 29 28 28 27 26 26 26 25 23 22 22 22 21 21 21 20 20 20 23 25 23 24 21 14 9 10 19 21 16 11 9 6 3 5 6 5 8 8 6 6 7 7 7 8 6 7 7 6 7 6 5 4 5 5 6 7 6 6 7 7 7 10 12 11 9 8 8 7 7 7 9 11 12 13 14 13 12 11 10 9 8 7 7 7 7
30 30 31 31 30 28 27 27 26 26 25 24 23 22 22 21 21 21 20 20 19 20 24 25 25 17 7 10 12 16 20 21 22 18 12 7 4 6 6 9 9 8 7 6 5 4 5 3 4 3 5 6 6 6 4 5 4 5 6 5 5 7 6 7 9 11 11 9 11 11 7 6 9 11 11 11 10 11 11 10 10 10 9 9 7 7 7 7
29 30 31 31 31 30 28 27 26 26 25 24 23 22 23 22 21 21 20 19 17 18 21 19 25 20 6 4 9 14 18 20 25 22 16 12 6 4 5 7 7 7 7 4 3 3 3 2 0 3 4 4 6 4 3 4 5 5 6 6 5 6 6 6 8 11 12 8 11 15 8 3 6 9 10 10 10 10 10 10 9 8 8 8 6 6 7 7
28 30 31 32 32 30 28 28 26 26 25 24 23 22 23 21 21 20 19 19 17 18 21 16 21 20 6 2 7 12 17 18 22 22 19 16 9 4 6 5 6 7 6 3 2 3 4 3 2 2 3 5 6 4 5 7 6 4 6 6 7 7 7 5 4 8 12 11 11 14 12 8 6 7 8 8 9 9 9 10 10 8 8 7 6 7 7 6
29 29 30 31 32 30 28 28 27 26 25 24 23 21 21 20 21 20 19 20 16 15 20 16 15 13 7 8 7 8 17 19 21 21 19 17 12 6 7 4 6 8 6 3 3 4 3 2 2 2 4 6 7 8 8 7 6 7 7 6 6 8 9 8 6 4 8 11 10 10 11 11 10 9 10 10 11 11 9 8 8 8 8 7 7 7 6 6
31 29 29 31 32 30 29 28 28 27 25 24 22 20 18 16 16 17 20 19 12 8 9 9 12 7 3 9 9 6 16 22 19 18 18 18 15 8 9 5 5 7 6 3 5 6 4 2 3 5 7 9 10 11 11 6 5 8 8 7 7 8 8 9 9 7 5 6 9 10 11 10 10 10 11 10 11 13 12 9 7 8 8 7 7 7 7 7
31 30 30 31 31 31 29 28 28 28 27 25 22 17 12 9 8 9 15 13 11 12 6 6 14 7 5 4 14 13 15 20 17 16 20 22 19 12 8 6 4 5 6 5 6 6 5 4 6 10 10 10 12 13 13 9 9 9 7 8 9 7 7 7 8 9 8 6 8 9 10 11 11 11 10 9 10 12 13 12 11 10 9 8 9 9 9 8
29 30 30 31 32 31 29 29 29 29 28 26 24 14 5 10 8 3 8 8 11 19 12 5 11 9 3 3 16 20 11 14 14 13 21 23 18 12 7 6 6 5 8 8 6 5 6 7 12 14 10 8 10 13 13 12 13 12 8 8 8 6 6 6 6 5 5 6 6 8 11 13 12 11 10 10 11 11 11 12 13 12 12 10 10 10 9 8
30 31 31 31 32 30 30 29 29 30 27 26 25 14 6 15 12 3 4 6 10 20 18 11 9 9 6 7 12 24 9 10 13 11 19 21 15 10 8 9 8 7 9 8 6 5 7 11 16 12 7 8 10 10 12 14 13 10 8 8 8 7 5 6 8 6 4 3 4 6 10 11 11 11 11 11 12 11 11 13 13 12 12 11 10 9 9 8
29 30 32 31 30 31 31 29 28 30 28 26 25 19 15 22 17 4 2 2 7 15 16 16 12 8 10 5 8 21 10 10 13 10 20 21 12 11 10 10 10 9 8 10 10 8 8 12 13 10 8 10 10 10 11 11 10 9 8 8 8 7 5 5 6 6 6 5 5 6 8 9 9 10 11 11 12 12 13 15 14 13 13 12 11 9 9 9
29 29 31 32 30 30 31 30 27 27 30 29 26 27 25 22 18 14 6 1 5 9 13 19 14 9 13 7 9 16 10 10 11 11 21 20 10 9 10 11 12 9 8 13 15 12 12 9 7 10 13 12 10 12 12 9 8 10 10 10 9 7 7 7 5 6 7 6 7 6 7 9 9 10 12 10 11 14 14 14 15 14 13 12 10 10 9 9
30 28 30 32 31 28 31 29 23 26 30 26 27 33 29 21 19 17 7 2 5 4 10 17 11 11 17 13 13 11 5 8 11 13 21 20 13 10 8 8 9 10 13 16 15 12 14 10 6 10 13 12 12 12 12 10 7 8 11 12 11 8 9 10 7 6 5 6 5 2 6 9 6 9 13 10 11 15 13 14 17 15 14 12 10 10 10 10
33 29 28 31 31 30 26 17 20 30 25 21 30 34 27 23 21 16 6 3 6 4 9 12 8 14 21 15 12 7 2 8 10 16 23 21 16 10 8 7 5 11 14 13 10 6 10 12 11 11 11 13 14 11 11 12 8 8 9 10 11 10 11 11 9 6 4 5 2 1 5 8 4 8 11 9 11 13 12 13 15 13 12 12 10 11 11 10
34 31 30 30 30 30 19 10 19 25 15 19 32 30 25 24 21 14 5 5 6 6 9 8 6 16 21 18 19 10 3 7 6 9 19 21 17 8 7 9 6 9 10 7 7 5 9 13 12 12 10 10 11 10 12 11 8 8 5 3 8 11 12 11 9 8 6 4 3 2 4 7 10 10 8 8 10 11 10 11 11 10 10 11 12 13 12 10
34 32 31 30 32 32 26 17 15 17 20 23 23 22 24 24 20 12 4 6 4 7 9 7 7 14 15 19 23 12 5 13 9 7 15 23 20 8 8 12 10 11 11 9 9 8 12 15 14 14 11 8 9 10 12 11 10 8 2 3 2 3 4 5 5 7 5 4 6 7 5 5 13 11 5 7 11 11 12 11 11 10 9 10 12 13 12 10
36 33 32 33 32 32 34 28 17 20 28 23 15 21 26 23 17 6 4 6 2 3 6 10 11 10 10 16 20 14 9 11 9 9 15 20 17 6 5 10 11 12 12 10 10 8 9 13 15 14 10 9 10 9 10 11 11 7 2 2 1 3 4 4 2 2 2 4 9 10 8 6 13 11 4 5 8 8 9 9 10 11 11 12 12 11 11 10
39 36 34 33 30 31 34 31 29 29 25 20 21 26 26 18 9 5 8 6 2 1 3 8 14 15 16 16 14 15 17 9 6 11 11 11 13 7 2 4 5 7 9 10 11 10 7 6 9 10 9 9 9 8 8 9 9 6 4 4 2 0 2 3 2 2 2 6 12 15 13 10 11 10 3 5 7 6 6 7 7 9 10 12 11 9 9 9
39 38 36 34 34 33 23 20 34 34 22 23 29 28 20 8 4 7 8 2 1 5 5 6 14 21 23 19 11 14 18 10 8 14 10 7 11 8 4 4 2 2 6 8 8 11 9 5 4 5 7 7 6 7 6 4 5 5 5 5 3 1 1 2 0 1 3 8 12 14 14 12 11 10 2 3 7 7 7 7 8 9 9 9 9 8 8 8
40 39 37 36 38 34 23 23 37 37 26 26 27 20 9 5 5 7 4 2 3 7 8 9 12 18 24 22 14 15 17 11 11 15 13 10 11 10 9 9 7 6 6 6 7 8 9 9 4 1 2 7 7 7 5 3 3 5 6 6 5 3 3 4 3 4 7 9 8 8 10 10 10 12 11 11 12 10 10 11 7 7 8 7 6 6 6 7
42 40 38 39 39 36 36 35 31 30 30 28 21 10 6 8 7 7 7 4 4 5 9 13 14 17 23 20 14 17 17 12 13 14 13 14 13 13 13 11 12 11 7 8 9 7 7 9 10 5 2 6 10 8 7 6 5 7 6 7 8 5 5 7 6 6 8 8 7 8 8 7 4 9 17 18 17 15 16 17 12 10 10 6 5 5 5 6
42 41 39 40 41 41 43 36 27 29 33 26 13 7 9 9 5 10 14 7 2 2 9 14 17 19 20 16 14 18 15 10 14 15 13 14 12 12 13 12 14 10 5 7 8 8 9 8 10 12 6 8 13 11 8 7 6 7 6 5 7 6 6 8 6 7 7 6 5 7 7 6 5 7 13 13 14 15 14 15 15 15 15 10 8 8 8 8
40 42 41 39 41 43 43 37 32 34 29 17 6 7 11 9 6 9 11 5 1 3 9 14 19 18 16 14 15 20 16 10 15 15 12 13 11 11 13 12 15 12 6 6 6 7 10 7 8 15 12 11 13 12 9 7 5 6 6 5 8 9 8 5 3 5 4 4 3 5 4 4 3 6 8 6 10 10 9 11 14 14 14 13 11 11 11 10
40 41 38 36 38 42 44 39 36 36 24 9 6 9 9 9 9 7 7 8 6 5 10 13 16 14 13 11 12 18 16 10 15 12 8 11 12 13 15 11 15 16 11 8 6 6 9 7 8 13 14 14 14 12 12 8 4 4 7 9 8 6 6 4 6 5 4 6 5 4 6 5 2 7 8 8 11 9 6 8 9 9 11 11 11 12 12 10
38 34 27 29 39 42 43 41 39 34 18 5 6 9 7 8 10 8 7 9 8 9 11 10 10 11 13 12 11 17 16 9 14 12 6 9 10 13 16 12 15 18 14 10 6 5 7 6 7 12 14 17 13 9 9 9 7 3 5 9 5 2 1 1 4 5 7 9 6 6 10 7 3 4 5 9 13 11 9 9 9 10 11 10 10 10 9 8
35 27 17 28 47 45 40 42 39 26 10 5 11 14 8 7 10 10 9 10 9 11 11 8 8 10 13 13 11 18 18 11 13 13 9 9 7 12 19 13 14 19 17 12 5 3 6 3 5 11 13 13 10 7 7 9 13 10 5 6 5 1 3 4 3 4 7 8 6 8 10 7 6 5 4 7 10 9 9 9 7 7 8 10 11 8 7 7
27 15 9 32 52 46 42 42 31 14 5 6 12 15 10 7 10 12 12 12 11 11 12 9 7 8 11 13 12 17 19 15 15 13 11 9 5 13 21 13 13 19 19 16 8 3 5 3 4 9 12 9 7 7 7 8 12 12 7 3 2 1 4 5 2 3 5 7 6 7 8 5 5 5 6 9 10 8 6 4 5 6 7 7 4 1 2 3
16 5 7 34 51 47 45 36 17 6 5 7 10 12 11 9 11 13 14 15 11 7 9 11 9 7 9 12 13 14 15 16 17 13 10 10 6 11 19 14 12 18 19 17 11 3 3 4 4 6 9 8 6 8 11 11 9 8 8 7 5 3 2 1 2 2 3 4 5 7 8 5 3 2 1 3 5 5 5 6 6 7 8 8 7 6 5 5
10 5 8 30 48 50 40 20 7 7 8 10 12 13 12 10 12 15 16 16 10 3 4 10 12 9 7 10 12 13 12 12 14 12 8 11 10 8 15 17 15 17 16 13 11 7 3 4 5 4 6 7 7 7 8 9 8 7 9 10 9 8 5 3 6 5 3 4 4 6 7 4 3 2 3 4 5 4 5 6 5 7 8 8 8 7 5 5
9 9 9 28 50 49 27 8 7 10 9 11 13 12 11 10 12 17 19 16 11 4 2 4 12 13 8 8 9 11 12 10 13 13 8 12 15 10 16 22 18 17 15 11 13 10 2 2 4 3 4 5 4 4 4 3 4 2 4 7 9 9 7 8 10 7 6 5 5 6 7 4 2 4 5 3 3 4 6 6 6 6 7 8 8 8 7 6
9 8 10 34 56 44 16 7 10 8 9 12 14 15 13 10 12 17 18 18 13 8 5 3 9 12 10 10 10 11 12 10 13 15 10 11 15 11 15 22 19 15 14 10 11 8 2 3 5 3 1 1 1 2 4 5 5 1 3 5 8 10 10 8 6 4 6 6 5 6 8 5 3 4 5 4 4 6 6 6 7 6 7 8 9 9 8 7
8 4 4 33 58 40 12 9 12 9 11 13 15 19 15 11 15 17 17 18 14 10 10 8 6 8 9 11 11 13 14 10 11 15 12 10 12 11 15 21 19 14 12 11 11 9 6 6 7 5 3 1 2 2 2 1 3 4 5 5 7 10 9 4 2 0 4 7 7 7 7 5 2 5 6 5 7 9 8 6 6 7 7 9 10 8 8 8
7 2 2 18 39 29 12 12 15 14 16 16 16 21 18 11 14 19 19 18 15 12 11 10 8 6 7 9 10 12 16 13 9 11 12 8 7 9 15 22 21 15 12 13 12 9 7 7 8 9 9 9 9 7 6 6 5 3 4 6 8 11 10 5 3 4 6 8 9 9 7 6 5 7 10 8 8 11 13 11 10 8 7 9 9 8 8 8
6 4 0 6 15 14 11 13 14 15 18 16 12 16 22 16 11 17 20 17 16 15 11 9 11 9 7 9 9 11 15 13 7 8 11 10 6 6 14 22 21 17 14 15 15 9 4 5 8 10 11 12 10 6 3 3 6 6 9 11 10 10 10 7 5 7 8 7 9 10 7 5 6 9 11 12 11 11 13 14 14 10 7 6 7 8 8 6
3 3 4 4 6 9 10 9 9 11 16 19 11 10 22 21 12 14 17 13 13 15 9 4 9 12 10 10 9 10 12 11 7 9 13 11 5 5 13 18 17 17 15 15 14 9 4 6 11 13 16 12 5 3 1 4 7 10 12 13 12 11 11 9 8 10 8 5 8 11 8 5 10 13 14 14 12 10 11 12 11 8 6 6 6 7 8 8
1 2 2 2 2 6 11 13 13 10 13 17 13 12 21 22 17 14 12 8 11 16 10 4 6 12 13 13 11 8 11 12 9 10 11 8 6 6 11 14 14 16 14 11 10 8 4 8 13 14 16 14 7 6 4 4 4 4 7 11 13 12 13 13 13 14 12 8 9 12 10 10 12 13 12 12 11 11 12 11 7 6 7 8 8 7 8 9
1 1 1 2 2 3 8 15 18 15 13 14 11 12 21 23 20 16 9 8 11 16 15 12 12 12 12 14 14 10 11 12 11 10 10 10 11 10 10 9 9 12 13 10 8 7 5 7 11 11 14 16 12 8 5 6 5 3 3 6 8 11 14 15 15 15 14 12 9 9 11 12 10 9 10 12 11 10 10 8 6 7 8 8 6 5 7 9
1 1 2 3 2 3 4 8 13 14 13 13 9 10 18 24 23 17 12 13 15 14 16 18 18 16 12 12 14 16 17 16 13 13 13 13 13 11 10 8 7 11 13 9 7 8 6 7 9 9 8 11 13 11 9 7 5 4 5 7 9 12 14 14 13 11 10 10 9 8 10 12 9 8 10 12 11 10 9 8 7 6 4 5 6 7 8 8
2 1 2 3 4 6 7 6 8 10 9 11 10 9 15 22 23 18 13 15 19 18 19 23 22 16 11 10 12 15 19 20 16 15 15 15 14 11 7 6 9 13 12 9 7 7 6 5 5 7 6 9 9 10 10 6 2 4 9 14 16 15 12 11 10 8 9 9 9 9 9 10 9 8 9 12 13 11 9 6 3 3 6 7 7 7 7 7
1 2 2 3 3 5 8 7 7 8 7 8 11 13 16 19 22 20 11 9 15 17 19 24 22 14 10 13 15 13 12 13 12 10 9 8 9 7 5 6 11 13 11 8 5 5 6 5 4 6 7 7 6 9 7 4 3 6 13 17 18 15 11 9 7 10 12 10 7 8 10 10 9 7 9 12 12 8 3 2 3 5 6 6 6 6 5 6
Wind_Direction
259 258 258 259 260 259 258 258 254 248 244 242 245 248 250 254 258 257 253 254 261 271 276 274 276 277 270 282 298 311 326 316 298 278 256 252 249 247 259 268 260 246 251 258 263 268 269 268 269 263 261 274 258 241 235 206 214 245 221 229 245 239 241 247 250 270 280 201 143 135 67 21 117 133 117 124 233 217 165 178 159 117 95 106 123 129 135 144
258 257 256 256 257 257 257 257 258 255 247 239 238 243 246 249 253 254 252 251 257 265 270 272 271 270 267 275 291 318 328 307 287 273 263 259 252 245 250 256 250 237 256 288 275 261 264 263 266 265 249 260 251 207 140 187 191 212 240 236 239 241 259 272 279 322 359 328 22 84 83 47 17 64 118 259 256 223 203 193 175 159 123 119 130 134 140 148
257 255 254 254 254 255 255 256 257 259 256 245 237 238 242 246 247 249 250 250 253 260 264 266 264 265 269 273 289 329 321 302 282 270 271 263 248 241 239 244 244 239 244 264 280 276 276 273 272 273 260 255 245 211 177 186 195 205 224 243 243 248 266 274 286 305 335 323 330 332 298 133 21 2 158 275 300 279 260 233 182 188 165 146 142 141 147 155
255 254 253 252 252 252 252 253 255 256 258 254 244 237 237 242 243 244 247 248 251 255 259 261 260 260 263 270 282 321 305 294 277 145 66 250 249 242 234 237 238 236 236 241 264 276 278 276 270 270 265 265 263 252 225 202 199 205 206 235 249 255 268 274 279 286 304 310 310 322 330 335 330 343 327 306 299 277 274 10 48 0 146 147 150 151 157 162
253 253 252 251 250 250 249 249 251 253 254 255 251 244 237 236 238 241 241 243 247 251 255 255 256 255 256 260 264 299 288 285 148 114 86 45 4 306 235 232 236 233 230 232 249 257 259 262 255 247 246 248 252 256 248 226 225 251 241 244 256 261 267 274 284 306 16 356 346 358 329 312 309 301 256 261 265 269 283 47 55 34 98 145 159 159 166 170
252 251 250 250 248 247 247 246 247 249 251 252 252 251 244 236 233 235 238 237 238 244 250 250 250 248 245 248 251 267 249 250 100 141 108 19 9 356 253 217 226 226 221 224 235 240 239 242 241 233 226 233 237 241 249 234 221 245 257 255 259 266 267 267 282 318 39 20 349 334 306 307 304 290 268 258 254 263 282 345 47 63 103 150 162 158 174 181
251 251 250 249 248 246 244 244 244 245 248 249 249 251 252 244 234 231 234 235 233 234 242 243 242 239 238 244 249 250 238 257 239 161 117 11 11 6 19 187 205 211 211 218 222 228 229 226 225 225 229 230 229 234 247 249 233 233 243 250 253 257 263 261 268 286 290 269 243 237 281 288 280 283 287 274 270 267 280 320 330 307 133 158 169 162 181 190
251 251 250 249 247 246 243 241 242 244 245 246 247 248 251 252 242 231 229 231 231 229 233 237 234 229 230 231 234 237 233 244 242 219 274 341 3 12 75 151 184 196 206 215 216 219 225 227 223 221 229 232 234 233 235 248 247 242 246 250 253 255 265 268 262 268 262 257 265 233 244 263 259 271 274 267 277 282 286 303 302 291 198 179 193 178 185 193
251 250 250 249 247 246 244 241 240 241 242 243 245 246 248 252 246 237 233 228 227 228 227 230 229 221 224 224 231 244 240 238 239 241 250 282 331 354 71 140 176 184 202 212 217 222 218 221 225 229 238 238 244 244 233 237 243 240 245 248 250 252 263 272 269 270 266 249 265 256 243 254 250 258 266 253 255 265 271 268 264 269 253 218 204 199 197 195
250 250 249 249 248 247 245 242 240 239 240 240 243 245 245 247 247 245 241 228 221 227 224 225 225 216 216 217 227 245 247 231 233 240 245 259 282 285 6 152 177 182 200 208 215 222 223 226 230 242 260 262 255 255 246 239 250 252 251 254 251 248 249 259 259 260 266 249 246 255 248 250 244 237 251 239 234 246 244 247 246 247 249 233 207 211 213 204
250 249 248 247 247 247 245 242 240 238 237 238 239 242 243 245 246 248 248 234 222 223 222 221 221 214 212 212 223 232 200 205 219 233 244 245 246 243 240 163 178 190 200 209 216 221 234 245 250 255 251 259 259 262 263 254 259 262 264 272 266 264 261 257 256 251 257 250 240 259 261 253 246 237 244 247 246 256 254 253 253 249 251 241 214 211 217 214
249 248 247 246 245 245 244 243 241 237 236 236 236 238 240 242 244 245 248 244 232 224 220 217 215 211 211 222 227 221 210 224 209 208 230 225 218 229 226 197 189 201 205 211 212 220 238 251 258 258 253 278 253 250 285 288 269 257 258 268 269 271 264 250 251 251 247 246 228 265 277 254 242 242 244 249 243 241 247 249 253 252 246 236 220 216 215 210
249 248 247 245 244 243 242 242 241 239 236 234 234 235 237 238 241 242 243 247 241 229 221 215 210 207 210 234 230 221 227 237 224 203 186 170 181 193 204 196 194 209 221 226 223 227 237 249 258 256 276 290 259 216 326 297 263 252 250 253 264 266 257 242 242 246 239 240 210 202 262 242 233 237 233 235 232 230 235 236 243 249 245 232 221 224 222 207
249 248 247 245 244 243 242 240 240 240 237 234 232 232 233 235 237 240 240 243 243 231 222 214 206 203 212 238 235 226 230 233 238 236 211 180 162 164 170 180 186 196 216 234 249 257 245 267 289 269 270 269 278 356 339 272 243 245 248 242 245 254 254 232 226 230 229 225 198 201 245 243 240 247 241 235 224 221 228 228 233 241 242 235 226 227 230 216
248 248 246 245 245 243 242 239 238 238 238 236 233 232 232 233 234 236 238 239 243 236 228 218 203 198 225 244 237 230 228 226 229 230 221 216 177 159 170 174 180 190 197 212 230 245 248 290 331 271 250 255 276 316 310 268 252 233 241 238 223 238 256 242 226 220 222 217 194 205 242 241 239 249 249 249 237 227 227 220 221 231 234 230 224 224 227 222
247 246 246 246 244 243 241 239 238 236 236 236 234 234 232 233 233 234 237 236 241 236 231 222 197 196 245 245 210 215 216 216 219 222 219 217 213 154 142 154 167 184 189 196 187 158 191 211 295 266 255 240 240 258 264 255 247 225 232 242 229 234 248 244 229 218 220 219 197 205 225 223 226 242 242 243 246 246 249 243 230 226 234 236 234 233 229 221
246 245 245 245 243 242 241 239 238 235 235 235 233 235 234 234 233 233 237 234 239 231 229 228 192 190 240 222 177 195 201 205 208 214 214 213 220 172 141 148 156 165 153 145 178 150 155 180 192 257 244 227 216 204 228 236 227 224 230 238 242 244 252 251 231 211 212 218 212 209 221 232 242 274 285 275 261 249 246 252 244 228 228 235 239 239 234 223
245 245 244 244 242 240 240 238 236 235 233 232 231 232 232 234 233 235 237 229 231 229 229 233 194 184 235 216 194 188 187 192 197 205 206 205 213 174 149 156 143 153 143 126 191 180 173 184 188 216 204 212 212 196 210 218 199 212 223 231 240 240 246 250 255 241 208 212 223 225 230 236 238 251 260 260 263 261 250 244 244 235 229 230 236 240 237 233
246 245 243 243 242 239 238 236 235 233 230 230 229 228 230 234 238 238 230 217 210 216 223 212 185 183 258 197 187 185 180 183 189 197 195 196 202 170 142 151 146 162 163 160 186 179 182 177 180 219 211 202 206 206 212 211 205 223 229 233 237 236 238 235 240 250 227 218 228 233 242 244 240 241 240 235 242 256 261 257 251 246 239 234 237 244 242 238
246 245 243 243 241 238 236 233 234 231 226 225 219 217 222 213 222 232 219 210 206 216 222 182 188 187 33 145 178 178 171 173 181 192 190 189 185 164 147 158 162 184 187 181 174 163 179 199 206 217 214 200 201 212 219 227 246 257 261 252 245 245 248 237 231 223 209 223 232 230 246 251 247 249 249 245 240 244 252 253 249 247 246 238 229 234 237 237
243 243 242 241 241 238 234 232 232 229 225 219 209 205 206 189 191 191 195 212 222 223 235 219 207 213 357 7 177 168 152 166 179 191 188 184 175 160 159 171 172 197 205 197 175 160 181 214 223 218 215 212 210 213 217 227 241 252 261 268 264 256 260 264 265 247 211 223 230 227 243 249 248 252 253 255 254 248 246 247 245 244 245 244 233 230 233 235
242 243 239 237 239 238 235 231 228 229 224 216 210 207 212 200 194 86 154 218 226 219 229 226 224 234 269 328 176 168 155 162 175 185 178 176 174 169 166 173 187 199 195 196 190 177 196 225 227 216 207 221 224 221 220 226 234 241 246 255 260 256 267 273 270 276 268 255 251 248 255 255 251 251 249 248 252 255 253 252 250 244 244 244 241 235 231 231
241 242 238 234 236 237 236 230 226 228 222 214 214 213 217 209 206 240 213 230 225 206 215 217 213 216 224 287 174 174 175 167 173 180 173 172 178 181 174 173 194 201 186 194 202 193 204 227 223 208 213 218 219 223 227 231 231 232 235 241 248 245 253 262 253 253 257 254 256 268 277 272 265 260 252 244 248 253 251 254 255 248 244 241 240 238 229 227
241 240 240 233 231 235 236 232 224 226 223 216 216 219 221 213 210 228 227 329 259 200 196 205 199 196 203 198 174 186 197 179 178 176 173 177 177 178 186 181 187 200 194 198 208 215 223 225 195 195 216 219 213 217 222 231 233 229 228 234 243 240 242 250 254 266 275 265 246 254 280 268 252 253 255 246 247 252 248 253 257 253 250 247 243 242 236 233
240 238 241 234 230 232 233 230 220 223 227 219 218 222 221 215 213 216 209 275 265 201 187 196 192 198 197 185 178 190 217 196 185 172 174 185 179 166 192 190 183 201 200 199 207 224 234 227 194 200 209 211 218 219 213 218 237 239 228 229 242 252 256 258 268 281 281 272 255 249 278 268 223 225 243 237 235 244 242 243 249 249 251 251 246 246 243 241
240 235 238 235 229 226 227 228 213 216 225 222 221 221 215 212 210 199 186 244 238 194 172 178 173 185 187 183 166 149 248 219 184 168 173 187 190 174 187 184 185 206 198 198 207 221 236 228 218 218 207 201 216 225 214 211 227 242 226 216 228 240 252 260 272 280 259 261 301 87 263 275 256 228 240 241 237 239 235 236 240 239 242 244 244 245 241 237
240 234 235 235 228 220 217 219 209 207 214 223 219 211 206 206 192 173 179 246 225 169 164 175 170 175 176 168 157 148 198 173 153 180 176 182 191 191 200 186 184 212 195 189 211 208 216 223 222 222 217 206 212 221 217 211 223 241 232 207 222 226 236 243 244 249 254 279 304 220 241 281 278 252 236 248 254 253 248 244 244 239 236 236 236 238 237 231
239 233 234 235 229 220 217 214 199 198 213 220 210 195 200 196 172 155 197 234 193 138 155 165 158 172 170 160 163 173 173 146 152 207 183 181 189 192 210 199 190 200 192 188 210 205 201 213 216 212 216 217 215 216 210 209 228 240 138 72 288 265 258 258 244 245 251 262 259 235 211 260 271 257 209 233 249 252 254 253 254 255 248 243 239 233 229 225
238 233 231 234 233 224 222 218 203 209 217 212 194 188 190 180 161 156 243 223 164 100 153 151 149 160 153 158 172 184 186 167 165 174 173 185 196 201 214 212 204 198 198 202 213 215 202 206 209 207 213 218 218 218 206 205 225 240 171 130 310 346 357 347 331 304 291 249 245 234 197 213 267 267 209 225 247 241 244 244 242 244 242 243 243 235 225 222
237 234 230 229 230 223 220 220 218 216 208 197 192 179 169 164 165 200 224 213 152 146 187 165 162 156 152 164 180 188 193 193 153 157 166 181 194 206 207 214 221 199 200 211 221 235 236 203 193 203 216 219 222 223 214 211 218 234 235 220 217 133 347 337 356 27 336 255 242 235 215 209 260 272 204 211 249 244 244 250 243 237 235 236 237 234 227 218
236 235 230 224 225 221 211 218 222 213 196 192 186 164 154 168 205 212 213 234 231 185 175 176 164 152 158 170 174 187 193 189 159 165 165 165 187 197 173 172 199 192 197 206 220 238 248 227 168 181 204 203 217 229 226 221 205 206 220 224 224 166 183 296 321 154 244 245 237 233 225 220 246 265 231 206 244 244 249 256 253 251 252 247 236 227 224 220
236 235 230 224 225 219 210 220 221 212 200 189 175 156 160 200 212 224 199 91 231 194 155 167 166 154 163 170 170 180 185 181 176 173 164 165 181 189 190 183 169 173 194 196 204 222 238 240 220 172 195 187 193 211 226 227 186 193 198 202 216 201 190 214 208 212 233 246 241 223 219 221 240 259 260 252 250 252 263 268 267 264 266 263 249 238 230 225
236 234 229 227 225 218 217 221 216 208 198 182 168 159 193 211 209 210 191 178 239 210 162 166 165 161 166 169 170 176 180 182 177 174 169 170 177 187 197 197 184 182 184 183 192 200 222 239 231 222 215 192 191 191 204 207 189 194 192 189 200 196 214 224 218 230 241 249 241 211 214 224 221 248 251 251 251 250 255 264 269 267 268 273 265 262 258 241
234 231 228 228 225 221 221 217 207 202 190 175 174 181 193 215 205 187 198 214 309 175 170 162 158 168 175 175 171 169 176 186 175 174 176 174 179 186 193 203 199 194 173 174 188 192 204 224 215 207 191 175 198 207 199 186 181 196 193 194 205 196 213 223 214 228 244 263 234 194 207 213 180 224 239 237 244 242 234 241 246 248 254 259 252 249 253 250
232 228 227 226 224 222 219 212 206 202 188 173 201 202 194 207 196 195 199 189 107 163 170 163 159 172 184 180 177 173 174 180 174 178 182 179 181 182 185 197 197 193 179 177 186 195 213 225 193 200 197 172 192 211 199 179 184 193 182 198 218 213 219 240 257 238 244 288 245 188 222 229 201 261 260 239 248 242 217 221 231 238 244 244 243 242 240 240
225 223 223 221 221 220 215 210 204 199 190 182 217 209 203 199 194 204 187 175 186 160 166 174 169 176 185 181 183 182 180 175 169 176 190 185 185 183 184 190 191 192 189 181 182 185 208 228 187 190 204 198 196 200 195 195 198 177 184 204 218 223 223 252 284 276 269 269 244 207 248 258 276 284 272 262 268 263 237 228 227 233 238 232 232 238 238 238
217 217 217 215 218 218 212 207 199 194 193 199 218 212 203 199 199 190 173 187 185 155 170 188 179 179 181 182 187 182 180 177 169 176 189 183 186 184 184 191 193 195 196 192 195 182 187 227 202 179 200 211 201 182 191 210 218 200 191 194 183 30 62 188 260 257 249 253 239 226 248 253 247 258 239 237 252 254 248 244 236 231 233 232 232 234 237 235
214 213 211 214 216 213 208 204 196 191 199 210 213 214 199 194 201 189 180 191 186 174 185 196 188 186 182 184 186 177 177 181 176 180 185 182 187 181 180 190 195 196 202 201 208 194 173 221 219 181 192 208 191 172 195 214 219 226 226 175 152 138 202 183 216 235 235 250 250 240 250 248 234 248 259 248 253 258 254 254 257 251 248 247 236 228 235 240
211 208 215 217 215 211 204 201 194 190 209 206 209 213 203 195 200 195 189 189 189 189 196 201 198 198 191 183 174 174 179 182 178 183 190 185 183 184 183 184 188 193 200 200 206 229 177 182 229 189 179 178 169 184 204 206 211 221 236 220 150 182 207 194 214 240 241 258 265 249 246 238 226 233 248 259 272 290 300 324 335 330 325 305 272 244 301 299
202 197 229 214 209 204 197 194 190 198 212 205 210 208 199 199 201 199 198 195 193 196 203 207 205 202 199 185 172 175 183 184 181 185 194 181 166 185 187 180 178 187 196 198 200 227 197 186 220 196 169 162 174 196 203 204 201 199 210 218 205 189 180 205 238 216 224 249 254 251 248 239 237 247 260 298 323 344 8 14 347 337 355 8 26 34 26 36
189 204 234 207 197 191 188 188 193 201 206 209 211 205 194 191 193 196 204 204 199 193 203 211 213 207 196 190 181 173 180 187 186 186 190 181 174 183 186 182 178 178 185 197 198 203 214 194 199 192 171 182 198 193 197 205 196 187 198 204 209 207 191 223 238 212 195 216 226 253 259 235 236 323 22 13 359 12 30 25 2 357 8 14 15 10 11 31
191 206 210 191 184 179 177 193 199 193 210 210 205 203 185 175 189 193 197 202 203 193 139 216 225 215 196 201 199 181 179 186 188 191 191 185 187 185 181 183 180 171 173 189 196 193 157 128 186 198 185 193 179 124 97 104 125 150 216 201 207 212 198 215 232 224 220 223 220 253 264 240 246 331 8 12 0 15 23 23 19 9 2 357 350 342 338 340
194 201 182 174 173 170 169 203 192 189 209 202 201 204 186 175 194 193 190 195 198 196 183 196 228 221 205 197 200 193 188 186 190 192 187 188 195 189 176 180 178 169 170 180 190 185 111 125 190 209 218 248 17 55 42 57 91 103 253 208 201 211 211 215 224 229 238 233 223 249 258 241 248 315 330 341 359 1 359 2 356 346 345 339 328 321 316 308
176 179 163 167 168 166 173 199 191 195 196 188 199 202 192 188 194 191 192 195 191 190 196 198 213 229 220 199 194 195 190 190 197 194 188 188 193 182 171 176 178 175 177 179 176 177 175 176 186 192 192 218 289 297 299 236 182 203 224 211 201 205 204 186 101 122 242 236 232 246 256 247 264 319 320 339 357 340 326 331 328 320 319 314 307 305 298 288
156 144 347 166 166 168 187 193 189 197 192 188 197 194 188 196 199 191 191 193 193 191 196 199 195 215 233 212 202 198 192 190 189 191 193 185 180 179 171 175 181 186 188 177 166 170 183 184 186 187 188 198 204 217 231 213 194 193 204 205 207 201 189 167 166 213 227 229 233 241 246 254 292 321 317 322 333 319 310 308 305 302 300 298 298 300 295 291
156 155 198 165 165 174 195 192 189 196 191 188 195 189 184 188 197 195 190 190 196 193 192 198 189 196 228 220 214 212 202 196 181 179 188 179 172 185 174 175 183 187 178 164 161 165 173 193 201 196 202 208 200 211 246 155 155 186 200 202 207 204 195 192 209 223 224 226 236 240 237 255 287 294 293 296 299 296 295 296 296 297 295 293 300 309 310 312
160 168 173 160 161 174 185 190 192 194 187 184 183 179 182 181 176 188 193 192 189 185 187 200 183 191 207 205 212 219 205 202 195 181 182 174 158 165 167 172 183 182 166 156 165 167 152 202 208 205 217 219 168 153 228 124 158 190 194 196 201 198 194 198 212 222 223 226 241 241 230 239 265 269 273 278 279 275 273 273 280 295 312 315 311 310 313 320
166 188 183 115 122 165 174 181 184 182 181 184 181 170 177 179 172 176 187 185 179 180 183 211 206 199 197 194 202 207 194 198 200 185 176 157 136 145 159 170 181 177 164 159 175 167 153 212 209 202 220 223 175 153 153 115 133 165 172 188 195 191 192 200 214 220 215 217 237 244 240 239 250 259 261 260 256 256 261 266 283 307 310 302 297 302 322 343
82 101 76 56 59 146 164 171 173 173 177 182 182 175 176 179 177 172 162 157 179 187 187 197 209 205 199 201 205 200 189 193 192 184 174 156 153 154 157 171 182 175 169 170 182 173 167 216 210 197 215 224 215 207 179 137 133 131 164 193 195 198 201 204 215 219 217 224 234 241 250 250 244 244 250 253 253 256 265 280 300 305 301 303 314 343 7 13
63 125 112 95 88 88 107 150 164 169 175 177 181 184 180 180 178 174 166 165 176 186 192 200 205 200 196 209 217 210 196 189 186 181 168 156 162 167 165 174 176 170 173 175 179 185 191 208 198 184 212 230 222 225 227 206 193 200 213 213 208 212 213 211 216 218 218 229 229 228 251 259 246 233 244 257 262 263 270 281 289 300 332 19 35 33 27 21
32 35 99 132 138 125 121 132 155 165 174 177 177 176 180 183 178 171 173 181 179 178 188 200 204 197 188 202 228 225 200 187 184 181 170 164 170 172 166 170 166 164 172 177 175 180 191 201 175 160 208 234 210 207 226 229 247 280 254 235 221 215 214 214 215 213 212 221 222 220 237 250 244 230 234 250 259 264 276 292 311 32 52 57 55 45 30 22
70 27 43 119 133 141 145 141 150 165 176 179 173 170 178 183 177 171 170 191 193 186 188 197 199 193 188 200 218 233 216 191 177 165 160 150 146 137 114 138 160 162 164 166 161 168 177 181 159 160 201 232 189 175 184 133 93 264 252 237 225 218 217 218 217 217 215 212 212 217 226 238 240 226 224 242 253 259 285 33 69 78 72 65 62 56 39 25